Regional Weather Roundup
Issued by NWS

Home | Current Version | Previous Version | Graphics & Text | Print | Product List | Glossary Off
Versions: 1 2 3 4 5 6 7 8 9 10 11 12 13 14 15 16 17 18 19 20 21 22 23 24 25 26 27 28 29 30 31 32 33 34 35 36 37 38 39 40 41 42 43 44 45 46 47 48 49 50

000
ASUS43 KTOP 221708
RWRKS

WEATHER ROUNDUP FOR KANSAS
NATIONAL WEATHER SERVICE GOODLAND KS
1200 PM CDT FRI MAY 22 2015

NOTE:  "FAIR" INDICATES FEW OR NO CLOUDS BELOW 12,000 FEET WITH NO
SIGNIFICANT WEATHER AND/OR OBSTRUCTIONS TO VISIBILITY.

KSZ001>006-013>018-027>032-041>047-221800-
NORTHWEST KANSAS

CITY           SKY/WX    TMP DP  RH WIND       PRES   REMARKS
GOODLAND       RAIN      49  48  97 SE20G31   30.07S FOG
HAYS           CLOUDY    54  43  66 S15       30.18S
HILL CITY      LGT RAIN  52  47  83 S15G21    30.17F
RUSSELL        CLOUDY    54  49  83 SE17      30.18S
$$

KSZ061>065-074>080-084>089-221800-
SOUTHWEST KANSAS

CITY           SKY/WX    TMP DP  RH WIND       PRES   REMARKS
DODGE CITY     CLOUDY    52  48  86 S16G26    30.16F
ELKHART          N/A     54  45  72 S15         N/A
GARDEN CITY    CLOUDY    50  49  96 SE20      30.11S FOG
GREAT BEND     CLOUDY    54  46  76 SE13G21   30.18S
LIBERAL        CLOUDY    54  48  82 S15G21    30.13S
PRATT          CLOUDY    54  46  76 SE15      30.19F
$$

KSZ066>073-081>083-090>101-221800-
SOUTHEAST KANSAS

CITY           SKY/WX    TMP DP  RH WIND       PRES   REMARKS
CHANUTE        LGT RAIN  60  48  64 SE12      30.25F
COFFEYVILLE    LGT RAIN  59  53  80 SE10      30.26F
HUTCHINSON     CLOUDY    56  50  80 SE14      30.21S
MEDICINE LODGE   N/A     54  51  90 SE10      30.20S
NEWTON         CLOUDY    54  48  82 S13       30.23F
PARSONS        CLOUDY    60  53  77 SE6       30.27F
WICHITA INTL   CLOUDY    55  52  89 SE8       30.21S
WICHITA JABRA  CLOUDY    56  53  90 SE12      30.21F
WICHITA MCCONL CLOUDY    55  53  93 S10       30.21F
WINFIELD       CLOUDY    55  54  96 SE9       30.23R
$$

KSZ007>012-019>026-033>040-048>060-102>105-221800-
NORTHEAST KANSAS

CITY           SKY/WX    TMP DP  RH WIND       PRES   REMARKS
CONCORDIA      CLOUDY    57  48  72 SE9       30.22R
EMPORIA        LGT RAIN  59  48  67 SE13G22   30.21F
LAWRENCE       CLOUDY    60  48  64 SE8       30.26F
MANHATTAN      LGT RAIN  60  48  64 SE9       30.22F
MARYSVILLE     LGT RAIN  59  46  63 CALM      30.23F
OLATHE IND     CLOUDY    59  47  64 S8        30.28F
OLATHE EXE     CLOUDY    58  47  66 S6        30.27F
SALINA         CLOUDY    57  50  77 S10       30.22S
TOPEKA BILLARD CLOUDY    61  48  62 SE7       30.25F
TOPEKA FORBES  CLOUDY    61  46  57 SE8       30.25F
$$



USA.gov is the U.S. government's official web portal to all federal, state and local government web resources and services.